GEFSSGP_500_meanwind_084.txt.gz
Wind_Speed
4 4 4 4 5 4 6 7 7 6 8 9 9 8 9 9 8 8 8 8 9 9 10 9 9 8 8 8 7 7 7 7 7 7 8 8 8 8 9 9 9 9 9 8 8 7 7 6 5
6 5 4 4 4 5 6 7 7 7 9 11 10 9 9 8 7 8 8 9 9 9 9 9 8 8 8 8 8 8 8 7 8 8 8 8 8 8 8 8 8 8 9 8 8 8 7 7 6
8 6 4 3 3 4 5 6 7 9 10 12 14 13 12 10 9 9 9 9 9 9 9 9 8 8 8 8 9 9 8 8 8 8 8 8 8 8 9 9 9 9 9 9 9 9 9 8 7
10 9 6 3 3 4 5 6 8 10 13 15 16 16 16 14 11 11 11 10 10 10 10 9 9 9 9 10 10 10 9 10 10 10 9 9 9 9 9 10 10 10 10 10 10 10 10 10 9
13 11 8 5 6 7 5 6 9 13 16 17 18 19 19 17 14 13 12 11 11 11 11 11 11 11 10 10 10 10 10 10 10 11 11 11 11 11 11 11 11 11 11 11 11 12 12 11 11
15 13 10 6 7 7 4 6 10 15 18 19 20 21 20 17 15 14 13 12 11 11 11 12 12 11 12 12 11 11 11 11 12 12 12 12 12 13 12 12 12 12 12 12 13 13 14 14 13
18 16 12 8 7 5 3 6 10 15 19 21 21 21 20 18 16 15 13 12 12 11 11 12 12 12 12 12 12 12 12 13 14 14 14 14 14 14 14 14 14 14 14 14 14 15 15 16 15
21 19 14 11 11 9 8 7 11 16 20 22 22 23 22 21 19 16 14 12 12 12 12 12 13 13 13 14 14 14 14 15 15 16 17 17 17 17 17 17 17 17 17 17 17 17 17 18 18
24 20 16 14 15 14 12 10 12 17 20 23 24 25 24 24 23 18 16 14 14 14 13 13 14 15 15 16 16 17 17 17 18 19 19 20 20 20 20 20 20 20 19 19 19 19 19 20 20
26 22 18 18 19 19 16 14 14 20 23 25 26 27 27 27 26 23 20 18 17 16 15 15 16 16 17 18 18 19 20 20 21 21 22 22 22 23 24 24 24 23 22 21 21 21 21 21 22
26 23 20 20 21 22 21 18 18 23 26 27 29 29 30 31 30 27 24 21 20 19 17 17 16 17 19 20 21 21 22 22 23 23 24 25 25 25 26 26 25 24 23 23 23 22 23 23 23
25 23 21 21 22 24 22 21 21 24 27 29 31 33 33 33 32 29 25 24 22 20 18 16 18 19 20 22 23 24 24 25 26 27 28 28 27 27 28 28 27 25 25 25 25 25 25 25 25
23 21 20 19 21 23 22 23 25 27 29 31 33 34 34 31 29 28 26 25 22 21 20 20 20 20 21 23 25 26 26 26 27 28 30 30 30 30 30 30 29 28 28 28 28 28 27 26 26
18 17 16 15 17 18 19 22 25 27 28 30 31 31 31 30 27 26 25 25 23 21 20 20 21 22 23 25 26 26 27 27 28 29 31 32 32 32 32 32 31 30 30 29 29 28 28 28 27
13 13 11 11 12 13 16 20 23 23 25 26 27 29 30 28 27 25 23 24 23 23 22 21 23 24 26 27 28 28 29 29 30 32 33 34 33 33 33 32 32 31 30 30 29 29 28 28 28
9 9 9 11 12 12 16 19 21 21 22 24 25 27 27 26 25 23 22 22 23 23 23 24 25 26 27 28 30 30 30 31 32 33 34 35 34 33 33 32 32 32 32 31 31 29 29 28 29
5 6 8 10 12 13 17 19 21 21 22 23 25 25 25 24 23 22 21 21 22 23 23 24 25 27 28 28 28 30 31 33 34 35 36 36 35 34 33 32 32 33 32 31 29 29 29 28 29
4 7 8 9 12 14 16 19 22 22 22 23 24 23 23 22 22 21 21 21 21 22 23 24 26 27 29 29 29 31 32 34 35 36 37 36 35 35 35 34 32 32 31 31 30 29 29 28 29
5 7 8 8 10 13 17 18 22 23 22 23 24 22 20 19 19 19 19 19 20 21 22 24 26 27 28 29 31 32 33 35 36 37 37 38 37 36 36 35 33 32 32 31 31 31 30 30 29
7 8 9 11 12 14 17 20 21 22 21 18 18 17 15 14 15 15 16 17 19 21 23 25 26 28 29 30 32 34 35 36 37 38 38 37 38 37 37 35 34 34 33 32 32 31 31 31 31
7 9 10 11 12 14 17 19 19 20 19 14 14 13 11 12 12 13 14 17 19 22 24 26 28 29 31 32 33 35 36 37 37 38 38 38 37 37 36 36 36 35 35 34 33 32 32 32 32
6 8 10 11 12 15 16 16 14 14 13 11 11 8 9 10 10 12 15 17 19 21 23 26 27 29 30 32 33 34 35 36 37 38 38 39 38 38 39 38 38 37 36 35 34 33 33 32 32
7 8 11 13 14 15 15 14 12 11 10 10 8 6 7 9 10 13 15 17 19 22 24 25 27 28 29 31 32 34 35 37 38 38 39 40 40 39 39 39 39 38 38 37 37 36 35 34 34
8 10 11 13 14 15 14 12 11 11 10 9 7 5 6 9 11 14 16 19 21 23 25 26 27 29 30 31 33 34 36 37 38 39 40 40 40 40 39 39 38 38 38 37 37 37 36 36 35
8 10 11 11 13 13 13 13 12 11 11 11 10 10 9 11 14 16 18 20 23 25 27 28 30 31 32 33 34 35 36 37 38 39 39 39 39 39 39 38 37 37 37 38 38 38 38 38 37
8 10 10 12 12 12 13 13 12 13 13 13 12 12 12 14 16 19 22 24 26 28 30 31 33 34 34 35 36 37 37 38 38 39 38 38 39 39 39 39 39 38 38 38 39 39 39 39 39
11 10 11 11 11 11 11 12 12 14 14 15 15 16 17 19 21 24 26 29 31 32 34 35 36 36 37 38 38 38 39 39 39 39 39 39 39 39 39 40 40 39 39 39 39 39 40 40 40
12 12 10 10 11 11 11 12 14 15 16 17 18 20 22 24 26 28 29 31 33 35 37 38 38 39 40 40 40 41 41 41 41 40 40 40 40 41 41 41 42 42 42 41 40 40 41 41 41
8 8 9 10 11 13 14 15 16 17 18 19 21 23 25 26 28 29 31 33 35 36 38 40 40 41 41 41 42 42 42 42 41 41 41 41 41 42 43 43 43 43 43 43 43 43 43 42 42
5 7 9 10 11 14 16 17 18 19 20 21 23 25 26 28 29 30 32 34 36 37 39 40 41 42 42 42 43 43 43 42 41 41 41 41 41 41 42 42 43 43 44 44 45 45 44 44 44

GEFSSGP_500_meanwind_090.txt.gz
Wind_Speed
5 4 4 4 4 5 4 3 3 3 5 6 7 8 9 9 10 9 8 8 8 8 7 7 6 6 5 5 6 6 6 5 5 5 5 5 5 5 5 6 6 6 5 5 5 5 5 4 4
7 6 5 5 6 6 5 4 3 2 3 5 6 7 9 10 11 11 10 9 8 8 8 8 7 6 6 6 6 6 6 6 6 6 6 6 6 6 6 6 6 6 6 5 5 4 4 4 3
10 9 8 8 7 7 7 6 5 4 4 4 5 6 8 11 12 12 11 10 9 9 9 9 8 7 7 7 7 6 6 6 7 7 8 8 8 8 8 8 8 7 7 6 5 5 4 4 4
12 11 11 10 10 10 10 9 8 9 7 6 6 6 8 11 13 12 11 10 10 11 11 10 9 8 8 8 7 7 7 7 8 8 8 9 9 9 9 9 9 8 8 8 8 7 6 6 5
15 14 14 13 14 13 13 13 12 12 11 9 8 8 9 12 12 12 11 12 12 12 12 12 11 10 9 8 8 8 9 9 9 9 9 9 10 10 10 10 10 10 10 10 10 9 9 9 8
18 17 16 16 16 17 17 16 16 16 14 13 12 10 10 12 12 12 12 13 13 13 14 15 13 12 11 10 9 9 9 9 9 10 10 10 11 11 12 12 12 12 12 13 13 12 12 12 11
20 19 18 18 19 20 20 20 19 19 17 15 13 11 10 11 12 13 14 14 15 16 16 16 14 14 13 12 12 11 10 10 10 11 11 12 12 13 13 14 14 14 15 15 15 15 15 15 15
22 21 19 19 20 22 23 23 21 20 18 17 15 12 11 12 13 14 16 17 18 18 18 18 16 15 15 15 14 14 13 12 12 12 13 13 14 15 15 16 16 17 17 17 18 18 18 17 17
24 22 20 21 22 24 26 25 24 22 20 18 16 14 13 13 15 16 18 19 20 21 20 19 18 17 18 17 17 16 16 15 15 15 16 16 17 17 18 18 19 19 19 19 19 20 20 20 20
24 22 21 23 24 26 27 27 26 25 23 20 18 16 16 15 16 17 19 21 22 22 21 20 20 20 20 20 20 19 18 18 18 18 19 19 20 20 20 20 21 21 22 21 21 21 21 22 22
24 22 22 23 25 26 27 28 27 26 25 22 20 19 17 17 18 19 21 22 23 22 21 22 22 22 23 22 21 22 22 21 21 21 22 22 22 22 22 22 23 23 23 23 23 23 23 24 23
22 22 22 23 24 26 27 29 30 28 26 25 23 21 19 19 21 22 23 23 23 21 22 22 23 24 24 24 24 24 25 24 23 24 24 23 23 24 24 25 25 25 25 26 26 26 25 25 25
20 20 20 21 22 24 26 28 29 30 30 28 26 23 23 23 22 23 23 24 22 21 21 22 22 23 23 24 24 23 24 23 23 23 24 24 25 26 25 26 26 27 27 28 28 28 27 27 27
17 17 18 18 20 22 25 27 28 29 29 28 27 26 26 26 24 24 23 22 21 21 21 22 22 22 23 21 22 22 22 23 24 24 24 25 25 26 27 28 28 28 29 28 28 28 28 29 28
15 15 16 17 19 21 23 24 26 26 26 27 28 28 28 26 25 23 22 21 20 19 20 21 19 19 19 20 22 23 23 24 24 24 25 26 27 28 29 29 28 29 29 29 29 28 29 29 28
13 14 15 16 18 18 20 21 23 24 24 25 26 28 27 25 24 23 20 20 20 19 19 18 18 17 18 20 21 22 24 24 24 26 27 27 28 28 29 30 30 29 28 28 29 28 29 29 29
13 13 13 14 16 16 17 18 20 21 22 23 24 25 24 24 24 23 20 20 19 18 17 17 17 18 19 21 22 23 23 24 25 27 28 29 30 30 31 31 31 31 31 30 30 29 29 29 29
12 12 11 12 13 14 15 17 18 19 20 21 23 23 23 24 24 21 19 19 16 15 16 16 18 19 21 22 23 24 25 26 27 28 29 30 31 32 32 33 33 33 33 32 32 32 30 30 29
10 10 10 11 12 13 14 16 16 16 18 19 19 20 21 21 20 18 17 15 15 15 16 17 18 20 22 23 25 26 27 28 29 30 31 32 33 33 33 33 34 34 34 33 33 32 31 31 30
8 8 9 9 10 10 12 14 14 14 15 15 15 15 15 16 15 14 13 13 13 15 16 17 19 21 23 24 26 28 29 30 31 32 32 33 33 33 34 34 34 34 34 34 34 33 33 32 33
7 8 8 8 9 10 11 11 11 12 12 12 12 11 12 11 11 12 12 12 13 15 17 18 20 22 24 26 27 29 30 31 32 33 33 34 34 34 35 35 35 35 35 35 35 35 35 34 35
7 8 9 10 10 10 10 10 10 10 9 9 9 10 11 10 10 11 13 12 14 16 17 19 21 23 25 27 29 30 31 32 33 34 34 35 35 35 36 36 36 36 36 37 37 37 36 36 36
9 9 9 9 9 9 9 9 8 8 8 8 9 9 8 7 8 10 12 13 14 17 19 20 22 24 26 28 30 31 32 33 34 34 35 35 36 36 36 36 37 37 37 37 38 38 38 37 37
9 9 8 8 8 7 7 7 7 8 8 7 7 8 6 7 8 9 11 13 15 17 19 21 23 25 27 29 30 31 32 33 33 34 34 35 35 36 36 36 36 36 36 36 36 36 37 37 37
9 8 8 8 7 6 6 6 7 7 7 6 7 7 6 7 8 10 12 14 16 18 20 22 24 26 28 30 31 31 32 32 33 33 34 34 35 36 36 36 35 35 35 35 36 36 37 37 37
9 9 9 9 7 6 6 6 6 6 7 7 7 7 7 8 10 12 13 15 17 19 21 23 25 28 29 31 32 32 32 32 32 33 33 34 35 35 35 35 35 35 35 36 36 36 37 38 38
9 9 9 8 6 6 5 6 6 7 7 8 8 8 9 10 12 13 15 17 19 20 23 25 27 29 31 32 33 33 33 33 34 34 34 34 34 34 35 35 36 36 36 36 36 37 37 38 39
8 9 8 7 6 4 4 5 6 7 8 8 8 8 9 11 13 15 17 19 21 23 25 28 30 32 33 33 34 34 34 35 35 35 34 34 35 35 36 36 36 36 36 36 36 37 37 38 39
7 7 7 6 6 5 4 5 6 7 8 9 9 10 12 13 15 17 19 21 23 25 28 30 32 33 34 35 35 35 36 36 36 35 35 36 35 35 35 35 35 35 35 36 37 37 38 38 39
6 7 7 6 6 5 6 6 7 9 10 11 12 13 15 16 18 20 22 23 25 27 30 32 34 35 35 35 36 36 37 37 36 36 37 36 35 35 35 35 35 35 36 36 37 38 39 40 41

GEFSSGP_500_meanwind_096.txt.gz
Wind_Speed
8 7 7 6 6 7 7 7 6 5 4 3 2 2 2 3 3 4 3 3 3 3 3 3 3 4 4 5 6 6 5 4 3 2 2 1 1 0 0 1 1 1 1 1 0 1 1 1 2
9 9 9 8 7 7 9 9 8 7 6 6 5 5 5 4 4 4 4 3 3 3 4 5 5 6 6 7 8 7 7 6 5 4 4 3 3 2 2 2 2 2 2 2 2 2 2 1 1
11 11 11 11 10 10 12 10 9 9 8 8 8 8 7 7 6 5 5 4 4 4 5 6 7 7 8 8 9 9 8 7 6 6 5 5 4 4 4 4 4 4 4 4 4 4 4 4 3
13 13 13 13 14 14 14 12 11 12 11 11 11 11 10 9 8 7 7 6 6 6 7 8 9 9 10 10 10 10 10 9 8 8 7 7 6 6 5 5 5 5 6 6 6 6 6 6 6
15 15 15 16 17 17 16 15 14 14 14 13 13 13 11 11 10 9 9 8 7 8 9 9 10 11 12 12 12 12 11 11 10 10 9 8 8 8 7 7 7 7 7 7 7 8 8 8 8
17 17 17 17 20 20 19 18 17 17 17 16 15 15 14 13 12 11 10 9 9 10 11 12 12 13 13 13 14 13 13 13 12 12 11 11 10 10 9 9 9 9 9 9 9 9 10 10 11
18 18 18 20 22 22 21 20 19 18 19 18 18 18 16 15 13 12 11 11 12 12 13 13 14 15 15 15 15 15 15 15 14 14 14 13 12 12 11 11 11 11 10 11 11 11 11 12 12
19 19 19 20 22 24 23 22 20 20 20 20 19 19 18 17 15 13 14 14 14 14 15 15 15 16 16 16 17 17 18 17 17 17 16 16 16 15 15 14 13 13 13 13 13 13 13 13 14
19 19 20 21 22 23 23 23 22 20 20 21 22 21 19 18 16 15 16 16 16 17 17 17 17 18 18 18 18 19 21 21 20 20 20 19 19 19 18 18 17 16 15 15 15 15 15 15 15
18 18 20 21 21 22 23 23 22 21 21 22 22 22 21 20 19 18 19 19 19 19 19 19 19 19 19 20 20 21 23 23 23 23 23 23 23 22 22 21 20 19 18 18 17 17 17 17 17
16 17 18 20 20 20 21 22 22 22 23 23 22 22 23 22 22 22 21 21 21 21 20 20 21 20 21 21 22 22 23 24 25 26 25 25 25 24 24 24 22 21 21 20 20 20 20 20 20
15 15 16 17 18 18 19 21 22 22 23 22 22 23 23 24 24 23 22 22 21 21 21 22 22 21 22 22 22 22 22 23 24 24 26 28 26 25 26 25 24 23 23 22 22 21 21 22 22
13 14 14 15 15 16 17 18 21 21 21 22 23 23 24 24 24 23 23 22 21 21 22 21 22 22 22 23 22 22 23 24 23 23 23 25 25 25 25 27 26 25 25 24 24 23 23 23 23
12 12 13 13 14 15 15 17 18 19 20 20 21 23 23 23 23 23 23 22 22 22 22 21 22 22 21 21 22 22 22 22 23 23 22 24 25 25 26 26 26 25 25 24 24 24 24 25 25
11 11 12 14 15 15 15 15 16 17 19 19 20 21 22 23 23 23 23 22 22 22 22 22 22 21 20 19 19 20 21 22 22 23 23 24 24 24 24 24 24 24 24 25 25 25 25 25 25
12 12 13 14 14 14 14 15 15 16 17 18 19 20 21 22 22 22 22 22 22 22 22 21 19 18 16 16 16 18 19 20 20 21 22 23 24 25 25 26 26 26 26 26 26 27 27 26 25
13 11 12 15 14 14 13 14 13 13 14 17 19 20 21 21 21 22 21 21 20 20 19 18 16 14 14 14 14 16 17 18 20 21 21 23 24 25 26 27 28 29 29 28 29 29 28 28 28
10 11 12 14 14 14 13 13 12 12 12 14 16 18 19 20 20 20 20 20 18 17 16 14 13 13 13 14 15 16 17 19 20 21 22 22 23 24 26 27 28 30 31 31 31 31 31 31 30
10 11 12 13 13 13 12 12 11 11 11 12 13 14 15 16 17 18 18 17 15 14 13 12 12 13 14 15 16 17 18 20 21 22 23 24 25 26 26 27 28 29 31 31 32 32 32 33 33
10 11 11 12 11 12 12 11 11 11 11 10 10 10 11 12 12 12 12 12 12 13 12 12 13 14 15 16 17 19 20 21 22 24 24 26 27 27 27 28 29 29 30 31 32 33 33 33 34
10 10 11 11 11 11 10 10 10 10 10 9 8 8 8 9 9 9 9 10 10 11 11 12 13 15 16 18 19 21 22 23 24 25 26 26 27 28 28 29 30 30 31 31 32 32 33 34 34
10 10 10 11 11 11 11 11 10 10 9 8 7 6 7 7 8 8 8 8 9 10 12 13 15 17 18 20 22 23 24 25 26 26 27 28 28 29 29 30 30 30 31 31 32 32 33 34 35
9 9 10 10 9 9 9 9 9 9 9 8 7 6 7 7 7 7 7 8 10 11 13 15 16 18 20 21 23 24 25 26 26 27 28 29 29 30 30 30 30 30 31 31 32 32 33 34 35
9 9 9 10 9 8 9 8 9 9 9 8 7 7 6 6 7 7 8 9 11 13 14 16 18 19 21 22 24 25 26 26 27 28 29 30 30 30 30 30 31 31 31 32 32 33 34 35 35
9 8 8 9 9 9 9 8 8 9 8 8 7 7 7 7 8 9 10 11 13 14 16 17 19 20 22 23 24 25 26 27 28 28 29 29 30 30 30 31 31 31 31 32 33 33 34 35 36
8 8 6 6 7 9 9 9 9 8 8 8 8 8 8 8 9 11 12 13 14 15 17 18 19 21 22 24 24 25 25 26 27 28 28 29 29 30 30 30 30 31 32 33 34 34 34 35 36
8 7 8 7 7 7 9 9 9 9 9 8 8 9 9 10 11 12 13 14 15 17 18 19 20 22 23 23 23 24 25 26 27 27 28 28 28 29 30 30 31 31 32 32 33 34 34 35 36
8 7 6 4 5 5 8 9 10 9 8 8 8 9 10 11 12 13 14 15 16 17 18 19 20 22 22 22 23 25 25 26 26 27 27 28 29 29 28 29 30 30 31 32 32 33 33 34 35
7 7 6 5 5 2 6 8 9 8 8 9 9 10 11 13 14 15 15 16 16 17 18 19 21 21 22 22 23 24 25 26 26 27 28 28 28 28 29 29 30 31 32 33 33 34 34 34 34
7 6 5 4 5 4 4 8 9 9 9 10 10 11 12 13 14 15 15 16 16 17 19 20 21 21 22 23 24 25 26 27 28 29 29 29 30 30 30 30 31 32 33 33 33 33 34 34 35

GEFSSGP_500_meanwind_102.txt.gz
Wind_Speed
8 7 7 7 7 6 2 0 6 7 7 8 7 9 11 10 10 9 9 8 7 8 7 7 7 7 6 7 7 7 7 8 8 8 7 7 6 6 5 5 5 4 4 3 3 3 3 2 2
9 9 9 9 9 9 10 7 5 9 9 9 10 11 12 9 10 10 9 9 8 8 8 8 8 8 8 8 9 9 9 9 9 9 8 8 7 7 7 6 6 6 5 5 4 4 4 3 3
11 11 10 10 8 10 15 15 10 10 11 11 13 14 13 12 11 11 10 10 9 9 9 9 9 9 9 10 10 10 10 10 10 10 9 9 9 9 8 8 7 7 7 6 6 6 5 5 4
13 12 12 11 8 11 17 17 14 12 14 14 15 17 16 13 11 11 11 11 10 10 11 10 11 11 11 11 11 12 12 11 11 11 11 10 10 10 10 9 9 9 8 8 7 7 7 7 7
14 13 11 9 9 14 18 18 16 14 17 15 18 20 17 12 11 11 11 12 11 11 11 12 12 12 13 13 13 13 13 13 13 12 12 12 12 12 11 11 10 10 10 9 9 9 9 9 9
14 13 10 9 13 16 19 21 19 18 18 17 17 21 18 12 12 12 13 13 12 12 13 14 13 14 14 14 15 15 15 15 15 15 14 14 13 13 13 12 12 11 11 11 11 11 11 11 11
14 13 11 11 14 16 21 24 23 20 20 18 20 23 15 10 11 13 13 14 14 14 14 15 16 16 16 16 17 17 16 17 17 17 17 17 16 16 15 14 14 14 13 13 13 13 13 13 13
14 12 10 11 13 16 20 23 22 20 22 21 21 25 19 11 11 13 15 16 16 16 16 17 17 17 18 18 17 17 18 19 19 20 20 20 20 19 18 17 17 16 16 16 15 15 14 14 14
12 11 10 12 13 17 20 20 20 23 23 22 21 22 21 17 15 16 17 18 17 17 18 18 19 20 19 18 17 17 18 19 21 22 22 23 23 22 21 21 20 19 18 18 18 17 16 16 16
11 10 12 16 19 21 21 20 19 21 21 22 23 20 20 18 17 17 19 18 18 18 19 20 20 21 20 20 19 19 19 20 22 22 23 24 25 24 23 23 22 21 21 20 20 20 19 19 18
11 12 15 16 18 19 20 20 21 20 21 23 23 23 19 19 19 19 19 19 19 20 21 20 21 22 21 21 21 20 21 21 22 23 24 25 25 26 25 24 24 23 22 22 22 22 22 21 21
11 12 14 15 16 16 17 19 19 21 23 23 21 19 18 22 20 20 19 19 20 20 20 21 22 22 22 21 20 19 21 22 22 23 23 24 24 24 24 25 25 24 22 22 22 23 22 22 22
11 12 13 13 14 15 17 18 18 20 20 20 20 21 20 20 19 19 21 20 19 20 21 21 20 20 20 20 19 20 21 21 22 22 22 23 24 22 22 23 23 22 22 22 23 23 23 23 23
9 10 11 12 13 16 18 17 18 19 17 17 18 19 20 20 20 21 20 20 18 19 19 19 19 20 20 19 19 20 20 20 20 20 20 21 20 19 20 20 21 21 21 21 22 23 23 24 23
7 9 13 14 14 14 18 18 17 17 16 15 16 18 20 20 19 19 19 19 20 21 20 19 19 20 20 19 20 19 18 17 18 18 18 19 18 19 19 19 21 22 22 22 23 24 24 24 24
10 12 15 15 15 15 17 17 15 13 13 14 14 16 18 19 19 20 19 19 20 21 21 20 19 19 19 19 18 17 16 15 16 17 17 17 17 18 19 20 21 21 21 22 22 23 23 24 25
14 15 18 16 14 13 15 18 17 11 12 12 13 14 16 17 18 19 19 19 20 20 20 19 18 17 16 16 15 14 14 15 16 16 17 17 18 19 20 20 21 22 22 23 23 23 24 25 26
13 13 16 17 15 14 15 16 16 11 10 11 12 11 12 13 16 17 18 18 19 18 18 17 17 15 14 13 13 13 14 15 16 17 18 18 19 20 20 21 21 23 24 24 25 26 26 27 28
13 13 14 15 13 12 15 14 11 11 9 10 10 9 9 10 11 13 15 16 16 16 16 16 14 13 13 12 13 14 15 16 17 18 18 19 20 21 21 22 23 24 25 26 27 27 27 28 29
12 14 14 15 13 12 11 10 8 9 8 8 9 8 8 9 9 10 10 11 13 13 13 13 12 12 11 12 14 15 16 16 18 19 19 20 21 21 22 22 23 25 26 26 27 28 28 29 30
11 14 14 12 11 11 12 10 9 8 8 7 7 8 8 8 8 8 8 9 9 9 10 10 10 10 11 12 14 15 17 18 19 20 20 21 22 22 23 24 24 25 26 27 27 27 28 29 29
11 12 11 9 10 11 10 10 10 9 9 7 7 7 6 6 7 7 8 9 9 9 9 10 10 10 12 13 15 17 18 19 20 21 21 22 22 23 24 24 25 25 26 26 26 26 27 28 29
11 9 9 11 11 9 7 8 10 9 8 8 8 7 6 6 7 7 7 7 8 8 8 9 10 11 13 15 16 18 19 20 20 21 22 23 24 24 24 24 25 25 26 26 26 26 27 28 29
10 9 10 13 11 7 6 7 9 10 10 10 9 7 5 6 7 7 7 7 8 8 8 9 11 13 14 16 17 19 20 20 21 22 23 24 24 24 24 24 25 25 26 26 26 27 28 29 29
9 9 14 15 13 8 9 7 10 9 10 10 9 7 6 6 7 8 8 9 9 9 10 12 13 14 16 18 18 19 20 20 21 22 22 23 23 24 24 25 25 26 26 26 27 27 28 28 29
9 9 10 12 13 11 9 10 9 10 9 9 9 7 7 7 8 9 10 10 10 11 12 13 15 16 17 18 19 19 20 21 21 22 23 23 24 25 26 26 26 27 27 27 27 27 27 28 29
8 8 8 11 10 8 9 11 10 11 10 10 9 8 8 9 9 10 11 12 12 13 14 15 16 17 18 19 19 20 21 22 22 23 24 25 25 26 26 27 27 27 28 28 28 28 29 29 30
8 7 7 7 10 10 7 8 12 13 12 12 11 9 9 10 11 12 13 13 13 14 15 16 17 18 19 19 20 21 21 22 23 23 25 26 27 28 28 29 29 29 29 30 30 31 31 32 33
8 7 8 8 7 9 10 8 10 12 13 12 12 11 10 11 12 12 13 14 14 15 15 16 17 18 19 20 21 21 22 22 23 24 25 26 27 28 29 30 30 31 31 32 33 34 34 34 35
9 9 10 9 7 6 11 11 11 14 15 13 12 12 12 12 13 13 14 14 14 15 16 17 18 19 19 20 21 21 22 23 24 25 26 27 28 29 30 31 32 32 33 33 34 35 36 36 36

GEFSSGP_500_meanwind_108.txt.gz
Wind_Speed
10 10 10 9 8 7 8 9 9 8 9 9 9 9 8 9 8 6 4 2 2 2 2 2 2 3 3 3 3 4 4 5 5 6 6 7 7 7 6 6 5 5 5 5 4 3 3 3 3
12 12 11 11 9 9 10 10 11 10 12 13 11 10 8 9 8 7 5 3 2 2 2 3 3 3 3 4 4 4 5 5 6 6 7 7 7 7 7 7 6 6 5 5 5 4 3 2 2
14 13 13 11 10 11 12 11 11 13 16 17 16 15 13 10 9 6 4 4 3 2 3 4 4 4 4 5 5 5 6 6 7 7 7 7 7 8 8 7 7 6 6 6 6 5 4 3 3
15 14 13 11 11 11 12 12 13 16 17 20 21 19 16 12 9 6 5 5 4 3 3 4 5 5 5 5 6 6 7 8 8 8 8 8 8 8 9 8 8 7 7 7 7 6 6 5 4
15 14 13 12 11 12 13 14 15 17 19 22 22 21 19 15 9 6 6 7 6 5 4 5 6 7 7 7 7 8 9 9 9 9 9 9 9 10 10 10 10 9 9 9 8 8 7 7 6
15 14 13 11 11 12 13 15 17 19 22 24 25 23 21 17 13 11 8 8 8 7 6 6 7 8 8 8 9 10 10 11 10 11 11 11 11 11 12 12 11 11 11 10 10 10 9 9 8
15 15 14 12 11 11 13 16 18 21 24 26 26 25 22 17 14 11 9 8 8 7 6 7 8 8 9 9 10 11 12 12 12 12 12 13 14 14 14 14 14 13 13 13 12 12 11 11 10
15 15 15 14 13 14 16 18 21 24 25 27 26 24 22 18 14 11 11 9 8 7 7 7 8 10 10 11 11 12 13 13 13 13 14 15 16 16 16 17 16 16 16 16 15 14 14 13 12
14 14 15 15 16 17 19 21 23 26 27 28 28 25 22 20 16 13 11 11 9 8 8 8 9 10 11 12 13 13 13 14 14 14 14 15 17 17 18 18 19 18 18 18 17 17 16 16 15
13 13 13 14 16 17 20 21 23 26 27 28 28 25 21 20 17 15 11 11 9 8 8 9 9 10 11 12 13 13 14 14 15 15 16 16 17 18 18 19 20 20 19 19 19 19 19 18 18
12 11 12 14 15 17 18 19 21 24 26 27 25 24 21 19 17 14 12 10 10 9 9 9 10 11 10 11 13 14 15 15 15 16 16 17 17 17 17 17 18 19 19 19 20 20 20 20 20
10 11 11 12 14 16 17 18 19 20 22 24 24 22 20 18 16 14 13 12 10 9 9 9 9 9 9 10 12 12 13 14 14 15 15 16 15 15 15 15 16 17 18 18 19 19 20 20 21
10 10 11 11 13 15 16 17 18 19 19 19 19 18 17 17 17 15 13 11 11 9 10 9 9 10 10 10 10 11 11 13 14 14 14 14 13 13 13 13 14 15 16 16 16 17 18 19 21
8 9 10 11 13 15 16 16 17 18 19 18 17 16 14 13 13 13 11 9 9 9 7 8 10 9 9 10 10 10 10 11 12 12 12 11 11 11 13 13 14 13 14 15 16 17 18 19 21
7 8 10 12 14 15 15 16 16 17 18 17 15 13 12 12 12 10 9 9 8 8 9 8 8 7 8 8 8 8 9 9 9 9 9 10 10 10 11 13 14 14 15 15 16 17 18 18 19
8 9 11 12 14 15 16 14 13 14 15 15 13 11 10 9 9 10 10 9 9 9 9 8 7 8 9 8 8 8 9 9 9 9 9 9 9 10 11 13 14 15 16 17 17 18 18 19 19
9 11 12 14 15 16 14 12 12 12 13 11 9 8 6 6 7 8 8 9 8 7 8 7 6 8 8 8 8 8 8 8 8 8 9 10 10 11 12 13 15 16 17 18 19 19 19 20 20
10 12 14 14 15 15 14 13 12 11 10 9 8 6 3 3 2 3 4 5 6 6 5 5 5 7 7 7 7 8 8 8 8 9 10 10 11 12 12 13 15 16 17 18 18 19 19 20 22
11 12 13 14 14 15 13 12 11 9 9 8 6 5 3 2 0 2 2 3 4 4 4 4 5 6 5 5 6 6 7 7 8 9 10 11 11 12 12 13 13 15 16 17 17 19 20 21 22
11 12 12 13 14 14 13 12 10 8 8 6 5 3 2 1 0 2 0 2 2 3 3 4 4 4 3 4 5 5 6 7 8 9 10 10 11 11 12 12 13 14 15 16 17 18 20 21 22
10 12 13 15 14 14 12 10 8 7 7 6 5 3 2 3 2 2 1 2 1 1 2 2 2 2 3 4 4 5 6 7 7 8 9 10 11 11 12 12 13 14 14 15 16 17 18 20 21
11 11 11 12 13 11 9 7 7 6 7 7 6 3 2 3 3 3 2 1 2 1 1 1 1 2 3 3 4 5 6 7 7 7 8 9 10 11 12 13 13 14 15 16 16 17 18 19 21
11 10 9 10 10 6 5 5 7 6 6 6 5 4 4 3 4 4 3 3 2 2 2 1 1 1 2 3 5 6 6 6 7 8 9 9 10 11 13 13 14 15 16 17 17 18 19 19 20
10 9 9 9 8 6 4 4 5 6 6 4 4 3 3 4 4 5 5 4 4 4 3 3 2 3 3 4 5 6 7 7 8 9 10 10 11 13 13 14 15 16 17 18 18 19 20 21 21
10 10 10 10 8 7 5 4 4 4 4 3 3 3 4 4 4 5 5 5 4 4 4 4 4 4 4 5 6 6 7 8 10 10 11 12 13 14 15 15 16 17 18 19 19 20 21 22 22
10 10 10 10 7 7 5 4 4 3 3 4 4 3 4 4 5 5 5 5 4 4 4 4 4 5 5 6 7 7 9 10 11 11 12 13 14 16 16 17 18 19 20 21 21 22 23 23 24
8 10 10 10 9 7 4 3 2 3 4 4 4 5 4 4 4 5 4 4 4 4 4 4 4 5 6 6 7 9 10 11 12 12 13 15 16 17 19 20 21 21 22 23 24 24 25 25 25
10 10 11 11 10 7 5 4 1 2 2 3 3 4 4 4 4 4 4 3 3 3 3 4 4 5 6 7 8 10 11 12 13 14 15 17 18 20 21 22 23 24 24 25 26 26 27 28 28
12 12 12 13 12 10 8 4 3 2 2 2 2 3 3 3 3 4 4 3 3 3 3 5 5 6 7 8 9 11 12 13 14 16 17 19 20 22 23 24 25 26 27 27 28 29 30 30 30
13 14 15 15 13 12 10 7 4 4 3 2 3 3 3 2 3 3 3 3 4 4 4 5 6 7 8 9 11 12 14 15 16 18 19 21 22 24 25 26 28 28 29 30 31 32 32 33 33